This is the latest recevied weather packets stored in our database for station/object DL0OHA-13. If no packets are shown the sender has not sent any weather packets the latest 10 day(s).
| Time | Temp. | Humidity | Pressure | Rain* | Wind** | Luminosity | Snow |
|---|---|---|---|---|---|---|---|
| 1788607265 | 18.89° C | 50% | 1017.3 hPa | 0 mm | - | 0 W/m² | - |
| 1788606665 | 18.89° C | 50% | 1017.2 hPa | 0 mm | - | 0 W/m² | - |
| 1788606079 | 18.33° C | 50% | 1017.2 hPa | 0 mm | - | 0 W/m² | - |
| 1788605464 | 18.33° C | 50% | 1017.2 hPa | 0 mm | - | 0 W/m² | - |
| 1788604864 | 18.33° C | 49% | 1017.1 hPa | 0 mm | - | 0 W/m² | - |
| 1788604264 | 18.33° C | 49% | 1017.1 hPa | 0 mm | - | 0 W/m² | - |
| 1788603664 | 18.33° C | 49% | 1017 hPa | 0 mm | - | 0 W/m² | - |
| 1788603064 | 18.33° C | 48% | 1016.8 hPa | 0 mm | - | 0 W/m² | - |
| 1788602465 | 18.33° C | 47% | 1016.8 hPa | 0 mm | - | 0 W/m² | - |
| 1788601864 | 18.33° C | 47% | 1016.8 hPa | 0 mm | - | 0 W/m² | - |
| 1788601263 | 18.33° C | 46% | 1016.8 hPa | 0 mm | - | 0 W/m² | - |
| 1788600663 | 18.33° C | 42% | 1016.9 hPa | 0 mm | - | 0 W/m² | - |
| 1788600063 | 17.78° C | 40% | 1016.9 hPa | 0 mm | - | 0 W/m² | - |
| 1788599463 | 17.78° C | 38% | 1016.7 hPa | 0 mm | - | 0 W/m² | - |
| 1788598863 | 17.78° C | 36% | 1016.7 hPa | 0 mm | - | 0 W/m² | - |
| 1788598263 | 17.22° C | 33% | 1016.6 hPa | 0 mm | - | 0 W/m² | - |
| 1788597663 | 17.78° C | 25% | 1016.6 hPa | 0 mm | - | 0 W/m² | - |
| 1788597065 | 17.78° C | 19% | 1016.3 hPa | 0 mm | - | 0 W/m² | - |
| 1788596462 | 17.22° C | 13% | 1016.4 hPa | 0 mm | - | 0 W/m² | - |
| 1788595862 | 16.67° C | 6% | 1016.3 hPa | 0 mm | - | 0 W/m² | - |
| 1788595262 | 16.67° C | 1% | 1016.2 hPa | 0 mm | - | 0 W/m² | - |
| 1788594662 | 16.67° C | 1% | 1016.1 hPa | 0 mm | - | 0 W/m² | - |
| 1788594062 | 15.56° C | 1% | 1015.9 hPa | 0 mm | - | 0 W/m² | - |
| 1788593462 | 15° C | 1% | 1015.8 hPa | 0 mm | - | 0 W/m² | - |
| 1788592862 | 13.89° C | 1% | 1015.8 hPa | 0 mm | - | 0 W/m² | - |
* Rain latest hour (hover to see other rain measurements)
** Current wind speed in m/s (hover to see current wind gust speed)